Location: Berg
(48.4333°N, 13.9167°E)
Time: 15:38:37
(UTC+00:00)

Meteor 2-5 Rocket - Pass Details

Date: 18 September 2020
Orbit: 833 x 912 km, 81.2° (Epoch: 24 October)

Event Time Altitude Azimuth Distance (km) Brightness Sun altitude
Rises 18:37:53 0° 353° (N) 3,412 7.2 -15.1°
Reaches altitude 10° 18:40:30 10° 2° (N) 2,482 6.4 -15.5°
Maximum altitude 18:45:41 37° 69° (ENE) 1,307 4.3 -16.3°
Enters shadow 18:47:59 27° 114° (ESE) 1,613 4.5 -16.7°
